"Time","Temp","Dewpoint","Humidity","Pressure","Direction","Speed","Gust","Precip","PrecipRate"
"00:04:58","71.7","70.5","96","29.88","194","0","0","0.00","0.00"
"00:09:59","71.7","70.5","96","29.88","194","0","0","0.00","0.00"
"00:14:56","71.7","70.5","96","29.88","194","0","0","0.00","0.00"
"00:19:57","71.7","70.6","96.4","29.88","194","0","0","0.00","0.00"
"00:24:57","71.7","70.5","96","29.88","194","0","0","0.00","0.00"
"00:29:58","71.7","70.8","97","29.88","194","0","0","0.00","0.00"
"00:34:58","71.7","70.7","96.8","29.87","194","0","0","0.00","0.00"
"00:39:56","71.6","70.7","96.9","29.87","194","0","0","0.00","0.00"
"00:44:57","71.6","70.5","96.2","29.87","194","0","0","0.00","0.00"
"00:49:57","71.5","70.3","96","29.87","194","0","0","0.00","0.00"
"00:54:56","71.5","70.6","97","29.87","194","0","0","0.00","0.00"
"00:59:56","71.5","70.6","97","29.87","194","0","0","0.01","0.01"
"01:04:56","71.5","70.6","97","29.87","194","0","0","0.02","0.02"
"01:09:56","71.5","70.6","97","29.87","194","0","0","0.03","0.03"
"01:14:56","71.4","70.5","97","29.87","194","0","0","0.04","0.04"
"01:19:56","71.3","70.4","97","29.86","194","0","0","0.04","0.04"
"01:24:59","71.3","70.4","97","29.86","194","0","0","0.04","0.04"
"01:29:56","71.3","70.4","97","29.86","194","0","0","0.04","0.04"
"01:34:56","71.3","70.4","97","29.86","194","0","0","0.05","0.05"
"01:39:57","71.3","70.4","97","29.86","194","0","0","0.05","0.05"
"01:44:57","71.3","70.6","97.8","29.86","194","0","0","0.05","0.05"
"01:49:57","71.3","70.7","98","29.86","194","0","0","0.05","0.05"
"01:54:58","71.3","70.7","98","29.86","194","0","0","0.05","0.05"
"01:59:58","71.2","70.6","98","29.86","194","0","0","0.05","0.05"
"02:04:58","71.2","70.6","98","29.86","194","0","0","0.05","0.04"
"02:09:58","71.2","70.6","98","29.86","194","0","0","0.05","0.03"
"02:14:58","71.2","70.6","98","29.86","194","0","0","0.05","0.02"
"02:19:58","71.2","70.6","98","29.86","194","0","0","0.05","0.01"
"02:24:58","71.2","70.6","98","29.86","194","0","0","0.05","0.01"
"02:29:58","71.2","70.6","98","29.86","194","0","0","0.05","0.01"
"02:34:57","71.2","70.6","98","29.85","194","0","0","0.05","0.01"
"02:39:58","71.2","70.6","98","29.85","194","0","0","0.05","0.00"
"02:44:58","71.2","70.6","98","29.85","194","0","0","0.05","0.00"
"02:49:58","71.2","70.6","98","29.85","194","0","0","0.05","0.00"
"02:54:57","71.2","70.6","98","29.85","194","0","0","0.05","0.00"
"02:59:57","71.2","70.6","98","29.85","194","0","0","0.05","0.00"
"03:04:58","71.2","70.6","98","29.85","194","0","0","0.05","0.00"
"03:09:57","71.1","70.5","98","29.85","194","0","0","0.05","0.00"
"03:14:57","71.1","70.5","98","29.85","194","0","0","0.05","0.00"
"03:19:56","71.1","70.5","98","29.84","194","0","0","0.05","0.00"
"03:24:59","71.1","70.5","98","29.84","194","0","0","0.05","0.00"
"03:29:58","71.1","70.5","98","29.84","194","0","0","0.05","0.00"
"03:34:58","71.1","70.5","98","29.84","194","0","0","0.05","0.00"
"03:39:58","71.1","70.5","98","29.84","194","0","0","0.05","0.00"
"03:44:57","71.1","70.5","98","29.84","194","0","0","0.05","0.00"
"03:49:56","71.1","70.5","98","29.83","194","0","0","0.05","0.00"
"03:54:57","71.1","70.5","98","29.83","194","0","0","0.05","0.00"
"03:59:56","71.1","70.5","98","29.83","194","0","0","0.05","0.00"
"04:04:59","71","70.4","98","29.83","194","0","0","0.05","0.00"
"04:09:58","71","70.4","98","29.83","194","0","0","0.05","0.00"
"04:14:58","71","70.4","98","29.83","194","0","0","0.05","0.00"
"04:19:58","70.9","70.3","98","29.83","194","0","0","0.05","0.00"
"04:24:58","70.9","70.3","98","29.83","194","0","0","0.05","0.00"
"04:29:56","70.9","70.3","98","29.83","194","0","0","0.05","0.00"
"04:34:57","71","70.4","98","29.83","194","0","0","0.05","0.00"
"04:39:58","71","70.4","98","29.83","194","0","0","0.05","0.00"
"04:44:57","70.9","70.3","98","29.84","194","0","0","0.05","0.00"
"04:49:58","70.9","70.3","98","29.84","194","0","0","0.05","0.00"
"04:54:58","70.8","70.2","98","29.84","194","0","0","0.05","0.00"
"04:59:58","70.8","70.2","98","29.84","194","0","0","0.05","0.00"
"05:04:58","70.8","70.2","98","29.84","194","0","0","0.05","0.00"
"05:09:57","70.7","70.1","98","29.84","194","0","0","0.05","0.00"
"05:14:57","70.6","70","98","29.85","194","0","0","0.05","0.00"
"05:19:57","70.6","70","98","29.85","194","0","0","0.05","0.00"
"05:24:56","70.6","70","98","29.85","194","0","0","0.05","0.00"
"05:29:56","70.5","69.9","98","29.85","194","0","0","0.05","0.00"
"05:34:59","70.5","69.9","98","29.85","194","0","0","0.05","0.00"
"05:39:56","70.4","69.8","98","29.85","194","0","0","0.05","0.00"
"05:44:59","70.4","69.8","98","29.85","194","0","0","0.05","0.00"
"05:49:56","70.4","69.8","98","29.85","194","0","0","0.05","0.00"
"05:54:57","70.3","69.7","98","29.85","194","0","0","0.05","0.00"
"05:59:56","70.3","69.7","98","29.85","194","0","0","0.05","0.00"
"06:04:58","70.3","69.7","98","29.85","194","0.4","3.6","0.05","0.00"
"06:09:58","70.2","69.6","98","29.85","195","0","1.2","0.05","0.00"
"06:14:59","70.2","69.6","98","29.86","218","0.3","2.4","0.05","0.00"
"06:19:58","70.1","69.5","98","29.86","223","0.3","2.4","0.05","0.00"
"06:24:57","70.1","69.5","98","29.86","224","0","1.2","0.05","0.00"
"06:29:57","70","69.4","98","29.86","224","0.3","2.4","0.05","0.00"
"06:34:56","69.9","69.3","98","29.86","226","0.3","2.3","0.05","0.00"
"06:39:56","69.9","69.3","98","29.86","138","0.3","3.6","0.05","0.00"
"06:44:59","69.8","69.2","98","29.86","137","0.1","3.5","0.05","0.00"
"06:49:59","69.8","69.2","98","29.86","136","0.2","2.4","0.05","0.00"
"06:54:58","69.9","69.3","98","29.86","136","0.1","1.2","0.05","0.00"
"06:59:58","69.9","69.3","98","29.87","136","0","0","0.05","0.00"
"07:04:58","70","69.5","98.5","29.87","136","0","1.2","0.05","0.00"
"07:09:57","70.1","69.7","98.8","29.87","136","0","1.2","0.05","0.00"
"07:14:56","70.1","69.5","98.2","29.87","136","0","0","0.05","0.00"
"07:19:56","70.1","69.5","98","29.87","136","0","0","0.05","0.00"
"07:24:58","70.3","69.7","98","29.87","136","0","0","0.05","0.00"
"07:29:58","70.4","69.8","98","29.87","126","0","0","0.05","0.00"
"07:34:56","70.4","69.8","98","29.87","58","0","0","0.05","0.00"
"07:39:56","70.3","69.7","98","29.87","59","0","0","0.05","0.00"
"07:44:56","70.3","69.7","98","29.88","58","0","0","0.05","0.00"
"07:49:57","70.3","69.7","98","29.88","53","0","0","0.05","0.00"
"07:54:55","70.3","69.7","98","29.88","94","0","0","0.05","0.00"
"07:59:59","70.5","69.9","98.3","29.88","93","0.3","2.4","0.05","0.00"
"08:04:59","70.8","70.5","98.9","29.88","87","0.8","3.6","0.05","0.00"
"08:09:58","71.1","70.8","98.9","29.88","75","0.5","2.4","0.05","0.00"
"08:14:57","71","70.5","98.3","29.88","347","2.9","8.4","0.05","0.00"
"08:19:57","71.2","70.6","98","29.88","352","1","5.8","0.05","0.00"
"08:24:56","71.5","70.9","98","29.88","344","1.2","4.8","0.05","0.00"
"08:29:59","71.9","71.3","98","29.88","347","1.5","4.8","0.05","0.00"
"08:34:57","72.1","71.4","97.4","29.88","347","2.2","7.2","0.05","0.00"
"08:39:58","72.1","71","96.2","29.88","354","2.2","7.2","0.05","0.00"
"08:44:57","72.5","71.3","96","29.89","360","0.6","3.6","0.05","0.00"
"08:49:57","72.9","71.7","96","29.89","333","1.1","4.8","0.05","0.00"
"08:54:57","73.4","71.9","94.8","29.89","356","1.3","6","0.05","0.00"
"08:59:56","73.8","71.8","93.5","29.89","320","1.4","6","0.05","0.00"
"09:04:56","74.2","71.9","92.4","29.89","334","1","4.8","0.05","0.00"
"09:09:59","74.8","72.2","91.8","29.89","6","1","3.6","0.05","0.00"
"09:14:59","75","72.1","90.8","29.89","352","1.6","4.8","0.05","0.00"
"09:19:59","74.8","71.8","90.2","29.89","301","0.3","2.4","0.05","0.00"
"09:24:58","74.8","71.7","90.1","29.89","303","0.6","3.6","0.05","0.00"
"09:29:58","74.9","71.9","90.2","29.89","346","1.1","6","0.05","0.00"
"09:34:58","75.1","71.9","89.7","29.89","249","1","4.8","0.05","0.00"
"09:39:59","75.1","71.7","89.3","29.89","228","1","4.8","0.05","0.00"
"09:44:57","75.1","71.6","88.9","29.89","347","1.1","4.8","0.05","0.00"
"09:49:57","75.2","71.4","88.2","29.89","329","1.7","7.2","0.05","0.00"
"09:54:57","75.2","71.1","86.9","29.89","270","1.3","3.6","0.05","0.00"
"09:59:56","75.2","71.2","87.2","29.89","330","1","6","0.05","0.00"
"10:04:56","75.3","70.9","86.2","29.89","341","2.1","6","0.05","0.00"
"10:09:59","75.3","71","86.5","29.89","340","1.5","4.8","0.05","0.00"
"10:14:59","75.5","71.5","87.3","29.89","326","0.7","2.4","0.05","0.00"
"10:19:59","75.8","71.8","87.2","29.89","345","0.4","3.6","0.05","0.00"
"10:24:59","76.1","71.7","86.4","29.89","297","0.9","3.6","0.05","0.00"
"10:29:59","76.2","71.5","85.5","29.89","275","1.2","6","0.05","0.00"
"10:34:57","76.3","71.3","84.5","29.89","312","0.3","6","0.05","0.00"
"10:39:58","76.4","71.3","84.3","29.89","338","0.2","4.8","0.05","0.00"
"10:44:58","76.6","71.4","84.2","29.89","327","0.7","4.8","0.05","0.00"
"10:49:58","76.8","71.3","83.4","29.89","347","1.4","6","0.05","0.00"
"10:54:58","76.9","71.2","82.7","29.89","343","1.2","5.8","0.05","0.00"
"10:59:58","77","71.3","82.5","29.89","271","0","0","0.05","0.00"
"11:04:58","77.2","71.9","83.5","29.89","292","0","1.2","0.05","0.00"
"11:09:57","77.4","71.9","83.2","29.89","342","0.5","3.6","0.05","0.00"
"11:14:58","77.4","72","83.5","29.89","355","0","2.3","0.05","0.00"
"11:19:56","77.7","72","82.5","29.88","337","0.9","4.8","0.05","0.00"
"11:24:59","77.9","71.5","80.8","29.88","347","0.3","6","0.05","0.00"
"11:29:59","78.8","73.2","83.1","29.88","288","0","1.2","0.05","0.00"
"11:34:59","79.9","72.7","78.7","29.87","325","0.3","3.6","0.05","0.00"
"11:39:57","79.5","71.5","76.7","29.87","291","2.4","12","0.05","0.00"
"11:44:57","79.2","71.7","77.8","29.87","217","2.1","7.2","0.05","0.00"
"11:49:58","79.7","72.3","78","29.87","343","2.1","8.4","0.05","0.00"
"11:54:58","80.5","72.1","75.8","29.87","337","4.1","8.4","0.05","0.00"
"11:59:59","80.4","72","75.9","29.87","333","2.3","7.2","0.05","0.00"
"12:04:56","81","73.1","77.1","29.87","286","1.9","12","0.05","0.00"
"12:09:56","81.2","72.3","74.4","29.87","323","3","11.5","0.05","0.00"
"12:14:56","81","72.8","76.4","29.87","221","2.9","10.8","0.05","0.00"
"12:19:56","81.6","72.5","74","29.87","188","2.1","6","0.05","0.00"
"12:24:57","81","71.6","73.3","29.87","341","1.6","6","0.05","0.00"
"12:29:58","80.5","71.2","73.5","29.87","340","1.3","4.8","0.05","0.00"
"12:34:56","80.6","71.5","73.9","29.87","239","1.2","3.6","0.05","0.00"
"12:39:58","80.9","71.7","73.8","29.87","235","1.3","6","0.05","0.00"
"12:44:56","81.1","71.6","73.2","29.87","342","1.2","5.8","0.05","0.00"
"12:49:58","81.1","71.5","72.8","29.86","301","0.2","3.6","0.05","0.00"
"12:54:59","81.1","71.6","73.2","29.86","313","1.1","6","0.05","0.00"
"12:59:57","81","71.4","72.8","29.86","279","1.4","4.8","0.05","0.00"
"13:04:59","81.1","71.4","72.4","29.86","234","0.9","3.6","0.05","0.00"
"13:09:59","81.2","71.2","71.7","29.86","203","1.5","3.6","0.05","0.00"
"13:14:58","81.3","71.4","71.9","29.86","215","0.8","3.6","0.05","0.00"
"13:19:59","81.4","71.7","72.3","29.85","350","1.4","7.2","0.05","0.00"
"13:24:57","81.5","71.9","72.6","29.85","355","0.3","2.4","0.05","0.00"
"13:29:59","81.6","71.3","71.2","29.85","238","1.2","6","0.05","0.00"
"13:34:57","81.5","72","73","29.85","272","1.5","5.8","0.05","0.00"
"13:39:56","81.9","72.4","73","29.85","213","2.6","6","0.05","0.00"
"13:44:58","82.2","72.2","71.8","29.85","220","2","6","0.05","0.00"
"13:49:57","82.3","72.2","71.5","29.84","238","2","4.8","0.05","0.00"
"13:54:59","82.2","71.7","70.7","29.84","201","0.8","4.8","0.05","0.00"
"13:59:57","82","70.9","69.3","29.84","347","1.5","6","0.05","0.00"
"14:04:58","81.8","71.3","70.5","29.84","354","0.8","3.6","0.05","0.00"
"14:09:59","81.8","71.5","71","29.84","280","1.4","3.6","0.05","0.00"
"14:14:57","82.2","71.6","70.4","29.84","210","2","6","0.05","0.00"
"14:19:59","82.7","71.7","69.5","29.84","216","2.3","6","0.05","0.00"
"14:24:56","83.5","72.1","68.6","29.84","214","2.3","8.4","0.05","0.00"
"14:29:58","83.8","71.7","66.9","29.84","215","1.6","4.8","0.05","0.00"
"14:34:56","83.7","72.4","68.8","29.84","196","1.1","4.8","0.05","0.00"
"14:39:59","84.6","71.8","65.6","29.84","187","2.5","8.4","0.05","0.00"
"14:44:57","84.7","71.5","64.8","29.84","192","2.2","6","0.05","0.00"
"14:49:59","85.1","71.4","63.8","29.83","291","2.1","6","0.05","0.00"
"14:54:57","85.4","72.7","65.8","29.83","298","2.3","4.8","0.05","0.00"
"14:59:55","85.8","70.9","61.2","29.83","239","2","6","0.05","0.00"
"15:04:57","85.4","70.8","61.9","29.83","245","2.3","6","0.05","0.00"
"15:09:58","84.8","69.8","61","29.83","184","1.5","4.8","0.05","0.00"
"15:14:56","84.1","70.2","63.1","29.83","209","2","6","0.05","0.00"
"15:19:59","83.4","70.5","65.1","29.83","265","3.4","15","0.05","0.00"
"15:24:56","81.7","69.5","66.6","29.83","307","5.2","13.2","0.05","0.00"
"15:29:59","79.7","68.5","68.8","29.84","321","4.3","15","0.05","0.00"
"15:34:56","78.6","68.6","71.6","29.84","344","3.5","13.2","0.05","0.00"
"15:39:58","77.8","69","74.4","29.84","343","4.8","13.2","0.05","0.00"
"15:44:58","77.5","69.6","76.8","29.84","353","2.2","6","0.05","0.00"
"15:49:59","78.2","70.5","77.3","29.83","294","2.8","7.2","0.05","0.00"
"15:54:56","79.2","70.5","74.9","29.83","320","3.1","6","0.05","0.00"
"15:59:59","79.8","70.8","74.1","29.83","330","1.8","4.8","0.05","0.00"
"16:04:56","80","70.1","71.9","29.83","262","1.7","4.6","0.05","0.00"
"16:09:56","79.6","69.5","71.5","29.83","240","1.9","6","0.05","0.00"
"16:14:57","79.1","69.1","71.4","29.83","211","1.3","4.8","0.05","0.00"
"16:19:59","78.8","69.3","72.9","29.83","232","2.2","6","0.05","0.00"
"16:24:56","78.7","69.4","73.3","29.83","232","1","5.8","0.05","0.00"
"16:29:58","79.2","69.7","72.6","29.83","235","1.4","7.2","0.05","0.00"
"16:34:59","80.1","70","71.5","29.83","217","2.6","6","0.05","0.00"
"16:39:59","80.7","70.3","70.5","29.83","215","2","4.8","0.05","0.00"
"16:44:57","81.3","70.3","69.3","29.83","211","2.5","6","0.05","0.00"
"16:49:59","82.1","70.9","68.8","29.82","181","2.6","6","0.05","0.00"
"16:54:57","82.4","69.8","66","29.82","223","2.6","7.2","0.05","0.00"
"16:59:59","82.2","69.3","65.2","29.82","188","2.3","5.8","0.05","0.00"
"17:04:56","82","69.6","66.1","29.81","190","1.5","6","0.05","0.00"
"17:09:57","81.9","69.2","65.5","29.81","220","1.9","6","0.05","0.00"
"17:14:59","81.9","69.7","66.7","29.81","183","1.7","4.8","0.05","0.00"
"17:19:56","82.4","69.9","66","29.81","221","1.7","4.8","0.05","0.00"
"17:24:56","83.3","69.9","64.1","29.81","235","2.5","6","0.05","0.00"
"17:29:58","83.7","70.2","63.8","29.81","242","2.3","8.4","0.05","0.00"
"17:34:56","83.7","70.3","64.1","29.81","211","2.4","6","0.05","0.00"
"17:39:58","83.7","69.9","63.3","29.81","212","2.2","5.8","0.05","0.00"
"17:44:59","83","69.6","63.9","29.81","232","2.1","6","0.05","0.00"
"17:49:56","82.3","69.5","65.4","29.81","225","1.4","5.8","0.05","0.00"
"17:54:57","81.7","69.3","66.1","29.81","227","1.2","3.6","0.05","0.00"
"17:59:58","81.4","69.3","66.9","29.81","217","1.6","3.6","0.05","0.00"
"18:04:59","81.6","69.9","67.8","29.81","199","2","3.6","0.05","0.00"
"18:09:55","82","70","67","29.81","201","1.9","4.8","0.05","0.00"
"18:14:57","82.3","70.1","66.7","29.81","200","2.2","6","0.05","0.00"
"18:19:59","82.3","70","66.4","29.81","188","1.2","7.2","0.05","0.00"
"18:24:57","82.1","69.6","65.9","29.81","182","1.9","7.2","0.05","0.00"
"18:29:57","81.9","69.4","66","29.81","215","2.4","6","0.05","0.00"
"18:34:57","82","69.4","65.9","29.81","199","1.4","3.6","0.05","0.00"
"18:39:58","81.9","69.9","67.1","29.81","199","1.2","3.6","0.05","0.00"
"18:44:59","81.8","69.6","66.6","29.81","199","0.8","3.6","0.05","0.00"
"18:49:57","81.8","70","67.4","29.81","202","1.4","6","0.05","0.00"
"18:54:57","81.6","69.7","67.3","29.81","279","2.4","7.2","0.05","0.00"
"18:59:59","81.3","69.5","67.6","29.82","252","1.9","6","0.05","0.00"
"19:04:56","81.2","69.7","68.2","29.82","213","2.1","4.8","0.05","0.00"
"19:09:56","81.1","69.3","67.5","29.82","226","2.5","6","0.05","0.00"
"19:14:58","81.1","69.6","68.2","29.82","252","1.9","4.8","0.05","0.00"
"19:19:59","81","69.7","68.6","29.82","225","2","7.2","0.05","0.00"
"19:24:56","80.9","69.7","68.8","29.82","187","2.6","6.9","0.05","0.00"
"19:29:58","80.8","69.5","68.6","29.83","187","1.9","6","0.05","0.00"
"19:34:59","80.7","69.3","68.5","29.83","188","2.5","6","0.05","0.00"
"19:39:58","80.5","69.2","68.6","29.83","197","2.2","4.8","0.05","0.00"
"19:44:59","80.3","69.3","69.2","29.83","198","1.5","3.6","0.05","0.00"
"19:49:56","80.1","69.3","69.6","29.83","198","1.1","3.6","0.05","0.00"
"19:54:57","79.9","69.2","70","29.83","198","1.4","4.8","0.05","0.00"
"19:59:59","79.6","69.3","70.8","29.83","199","1.5","4.8","0.05","0.00"
"20:04:57","79.4","69.2","71","29.83","199","0.6","3.5","0.05","0.00"
"20:09:57","79.1","69.1","71.4","29.83","199","0.8","3.6","0.05","0.00"
"20:14:58","78.8","69","72","29.83","199","1.6","3.6","0.05","0.00"
"20:18:12","78.5","68.8","72.2","29.83","199","1.6","2.4","0.05","0.00"
"20:24:08","78.2","68.8","73","29.83","199","1.3","2.4","0.05","0.00"
"20:29:57","77.8","69","74.5","29.83","199","0.3","2.3","0.05","0.00"
"20:34:59","77.4","69","75.4","29.83","199","0","1.2","0.05","0.00"
"20:39:58","76.9","68.9","76.5","29.83","199","0.1","1.2","0.05","0.00"
"20:44:57","76.3","69","78.2","29.83","199","0","0","0.05","0.00"
"20:49:56","75.8","68.8","79","29.83","199","0","1.2","0.05","0.00"
"20:54:59","75.4","68.7","79.8","29.83","199","0","0","0.05","0.00"
"20:59:58","75","68.8","80.9","29.83","199","0","0","0.05","0.00"
"21:04:57","74.7","68.8","82","29.83","199","0","0","0.05","0.00"
"21:09:59","74.3","68.6","82.7","29.83","199","0","0","0.05","0.00"
"21:14:59","73.8","68.4","83.2","29.83","199","0","0","0.05","0.00"
"21:19:58","73.5","68.4","84","29.83","199","0","1.2","0.05","0.00"
"21:24:56","73.1","68.3","85","29.83","199","0.3","1.2","0.05","0.00"
"21:29:59","73","68.3","85.3","29.83","199","0","0","0.05","0.00"
"21:34:57","72.8","68.4","86","29.83","199","0","0","0.05","0.00"
"21:39:57","72.4","68.1","86.3","29.83","199","0","0","0.05","0.00"
"21:44:56","72.1","68","87","29.84","199","0.1","1.2","0.05","0.00"
"21:49:58","71.7","67.6","87","29.84","199","0","1.2","0.05","0.00"
"21:54:56","71.5","67.8","88.1","29.84","199","0","0","0.05","0.00"
"21:59:59","71.2","67.8","89","29.85","199","0","0","0.05","0.00"
"22:04:58","71","67.6","89","29.85","199","0","0","0.05","0.00"
"22:09:56","70.8","67.5","89.3","29.85","199","0","0","0.05","0.00"
"22:14:56","70.6","67.5","90","29.85","199","0","0","0.05","0.00"
"22:19:59","70.5","67.4","90.2","29.85","199","0","0","0.05","0.00"
"22:24:57","70.4","67.6","91","29.85","199","0","0","0.05","0.00"
"22:29:56","70.4","67.6","91","29.86","199","0","0","0.05","0.00"
"22:34:58","70.2","67.4","91","29.86","199","0","0","0.05","0.00"
"22:39:58","70.1","67.3","91","29.86","199","0","0","0.05","0.00"
"22:44:57","69.8","67.1","91","29.86","199","0","0","0.05","0.00"
"22:49:59","69.7","67.1","91.4","29.86","199","0","0","0.05","0.00"
"22:54:57","69.5","67.1","92","29.86","199","0","0","0.05","0.00"
"22:59:56","69.4","67","92","29.86","199","0","0","0.05","0.00"
"23:04:59","69.3","67.2","93","29.86","199","0","0","0.05","0.00"
"23:09:58","69.1","67","93","29.86","199","0","0","0.05","0.00"
"23:14:57","69.1","67","93","29.86","199","0","0","0.05","0.00"
"23:19:56","69.1","67","93","29.86","199","0","0","0.05","0.00"
"23:24:58","69.1","67","93","29.86","199","0","0","0.05","0.00"
"23:29:57","69","66.9","93","29.86","199","0","0","0.05","0.00"
"23:34:57","68.8","66.7","93","29.86","199","0","0","0.05","0.00"
"23:39:57","68.6","66.5","93","29.86","199","0","0","0.05","0.00"
"23:44:59","68.5","66.4","93","29.87","199","0","0","0.05","0.00"
